Location: Skalnate Pleso
(49.1889°N, 20.2450°E)
Time: 14:39:59
(UTC+01:00)

Cosmos 1766 Rocket - Pass Details

Date: 19 November 2019
Orbit: 606 x 632 km, 82.5° (Epoch: 11 December)

Event Time Altitude Azimuth Distance (km) Brightness Sun altitude
Rises 05:00:23 0° 201° (SSW) 2,853 6.8 -18.4°
Reaches altitude 10° 05:02:38 10° 207° (SSW) 1,955 5.9 -18.0°
Maximum altitude 05:06:51 52° 284° (WNW) 767 3.6 -17.3°
Drops below altitude 10° 05:11:08 10° 1° (N) 1,981 6.0 -16.6°
Sets 05:13:26 0° 6° (N) 2,894 7.0 -16.3°
